Amateur Radio Satellites - All Passes

Search period start: 19 June 2013 04:02
Search period end: 20 June 2013 04:02
Location: Prescott, 34.5400°N, 112.4680°W

Satellite Date Start Highest point End Downlink Frequencies (MHz)
Time Altitude Azimuth
KITSAT 1 19 Jun 04:26:30 04:32:09 21° 257° (WSW) 04:37:48 435.175 FM
AO-Echo 19 Jun 04:38:14 04:41:19 16° 294° (WNW) 04:44:25 ?
STRAND 1 19 Jun 04:44:35 04:46:00 11° 62° (ENE) 04:47:25 ?
UOSAT-12 19 Jun 04:47:14 04:50:45 22° 309° (NW) 04:54:17 437.025 FM, 437.400 FM
TMSAT-1 19 Jun 04:51:11 04:56:21 53° 287° (WNW) 05:01:28 436.925 FM
Uosat F 19 Jun 04:56:37 05:00:50 27° 291° (WNW) 05:05:03 435.120 FM
AO-7 19 Jun 05:22:26 05:30:48 70° 105° (ESE) 05:39:05 29.400 - 29.500 MHz
MaSat-1 19 Jun 05:29:29 05:31:58 70° 248° (WSW) 05:34:34 437.345 MHz
Gurwin Techsat 1B 19 Jun 05:33:21 05:36:13 15° 296° (WNW) 05:39:04 435.225 FM
Saudisat 1A 19 Jun 05:40:38 05:40:52 10° 44° (NE) 05:41:06 436.775 MHz
STRAND 1 19 Jun 06:19:23 06:24:29 77° 257° (WSW) 06:29:39 ?
JAS-1B 19 Jun 06:29:27 06:31:54 12° 94° (E) 06:34:26 435.800 - 435.900 CW/SSB
Hamsat 19 Jun 06:32:14 06:35:09 17° 94° (E) 06:38:02 145.90 MHz
AO-7 19 Jun 07:16:33 07:22:48 24° 302° (WNW) 07:29:02 29.400 - 29.500 MHz
Saudisat 1A 19 Jun 07:16:42 07:21:14 89° 61° (ENE) 07:25:39 436.775 MHz
SO-67 19 Jun 07:28:16 07:31:01 21° 96° (E) 07:33:46 435.3500 MHz FM
Hamsat 19 Jun 08:07:21 08:11:16 33° 288° (WNW) 08:15:09 145.90 MHz
JAS-1B 19 Jun 08:16:53 08:22:49 76° 285° (WNW) 08:29:41 435.800 - 435.900 CW/SSB
HO-68 19 Jun 08:52:35 08:58:05 23° 95° (E) 09:03:33 435.675 MHz FM
Sapphire 19 Jun 08:52:40 08:56:04 17° 50° (NE) 08:59:27 437.095 MHz 1200 baud AX-25 AFSK
SO-67 19 Jun 09:01:49 09:04:18 18° 289° (WNW) 09:06:47 435.3500 MHz FM
JAS-2 19 Jun 09:02:25 09:05:54 18° 93° (E) 09:09:18 435.800 - 435.900 CW/SSB, 435.910 FM
Oscar 11 19 Jun 09:47:53 09:51:51 33° 98° (E) 09:55:47 145.825 FM, Beacon 2401.500 USB
SO-50 19 Jun 09:59:05 10:03:30 50° 58° (ENE) 10:07:50 436.795 FM
PCSat 19 Jun 09:59:59 10:05:23 64° 62° (ENE) 10:10:45 145.825 MHz
OPAL 19 Jun 10:29:21 10:33:17 23° 98° (E) 10:37:14 ?
Sapphire 19 Jun 10:34:35 10:39:58 66° 247° (WSW) 10:45:19 437.095 MHz 1200 baud AX-25 AFSK
HO-68 19 Jun 10:39:03 10:46:03 57° 290° (WNW) 10:53:01 435.675 MHz FM
JAS-2 19 Jun 10:46:16 10:51:15 41° 289° (WNW) 10:56:04 435.800 - 435.900 CW/SSB, 435.910 FM
RS-15 19 Jun 10:49:36 11:01:22 60° 112° (ESE) 11:12:39 29.354 - 29.394 USB, Beacon 29.352 USB
Oscar 11 19 Jun 11:24:50 11:27:48 18° 292° (WNW) 11:30:44 145.825 FM, Beacon 2401.500 USB
UOSAT-12 19 Jun 11:40:31 11:42:57 14° 47° (NE) 11:45:22 437.025 FM, 437.400 FM
SO-50 19 Jun 11:41:31 11:43:37 13° 252° (WSW) 11:45:43 436.795 FM
PCSat 19 Jun 11:45:34 11:48:11 14° 257° (WSW) 11:50:47 145.825 MHz
OPAL 19 Jun 12:07:46 12:12:11 33° 292° (WNW) 12:16:37 ?
Oscar 16 19 Jun 12:14:44 12:17:36 15° 65° (ENE) 12:20:28 437.025 USB, Beacon 2401.1428
Uribyol 2 19 Jun 12:28:21 12:31:13 15° 64° (ENE) 12:34:05 436.500 FM
RS-15 19 Jun 13:03:19 13:14:14 39° 312° (NW) 13:24:47 29.354 - 29.394 USB, Beacon 29.352 USB
Oscar 19 19 Jun 13:06:29 13:11:19 42° 72° (ENE) 13:16:10 437.125 CW, 437.150 USB
UOSAT-12 19 Jun 13:18:58 13:23:32 65° 243° (WSW) 13:28:05 437.025 FM, 437.400 FM
ITAMSAT 1 19 Jun 13:31:30 13:36:37 61° 74° (ENE) 13:41:47 435.822 SSB
AO-27 19 Jun 13:32:39 13:37:47 65° 74° (ENE) 13:42:58 436.795 MHz FM
Oscar 16 19 Jun 13:51:21 13:56:27 57° 259° (W) 14:01:32 437.025 USB, Beacon 2401.1428
Uribyol 2 19 Jun 14:05:02 14:10:10 59° 259° (W) 14:15:20 436.500 FM
AO-Echo 19 Jun 14:07:59 14:12:27 45° 73° (ENE) 14:17:00 ?
ISS 19 Jun 14:14:28 14:17:06 22° 130° (SE) 14:19:43 145.800 FM
Uosat F 19 Jun 14:28:02 14:32:14 28° 69° (ENE) 14:36:27 435.120 FM
TMSAT-1 19 Jun 14:30:37 14:34:09 18° 66° (ENE) 14:37:41 436.925 FM
AO-7 19 Jun 14:30:58 14:34:10 13° 51° (NE) 14:37:21 29.400 - 29.500 MHz
Oscar 19 19 Jun 14:47:12 14:50:48 19° 266° (W) 14:54:25 437.125 CW, 437.150 USB
KITSAT 1 19 Jun 15:04:24 15:07:04 12° 99° (E) 15:09:44 435.175 FM
Gurwin Techsat 1B 19 Jun 15:09:08 15:14:23 67° 75° (ENE) 15:19:40 435.225 FM
ITAMSAT 1 19 Jun 15:14:08 15:16:29 13° 268° (W) 15:18:50 435.822 SSB
AO-27 19 Jun 15:15:40 15:17:42 12° 268° (W) 15:19:44 436.795 MHz FM
RS-15 19 Jun 15:26:22 15:31:17 13° 343° (NNW) 15:36:08 29.354 - 29.394 USB, Beacon 29.352 USB
AO-Echo 19 Jun 15:48:57 15:51:29 14° 267° (W) 15:54:03 ?
ISS 19 Jun 15:50:46 15:53:40 28° 324° (NW) 15:56:34 145.800 FM
Uosat F 19 Jun 16:06:40 16:10:55 28° 263° (W) 16:15:13 435.120 FM
TMSAT-1 19 Jun 16:08:34 16:13:40 48° 260° (W) 16:18:48 436.925 FM
AO-7 19 Jun 16:17:11 16:25:24 69° 70° (ENE) 16:33:41 29.400 - 29.500 MHz
Gurwin Techsat 1B 19 Jun 16:52:49 16:54:46 12° 269° (W) 16:56:44 435.225 FM
KITSAT 1 19 Jun 16:53:08 17:01:11 80° 115° (ESE) 17:09:18 435.175 FM
RS-15 19 Jun 17:45:05 17:51:00 15° 23° (NNE) 17:56:48 29.354 - 29.394 USB, Beacon 29.352 USB
AO-7 19 Jun 18:12:37 18:18:41 22° 265° (W) 18:24:48 29.400 - 29.500 MHz
MaSat-1 19 Jun 18:14:58 18:19:44 25° 109° (ESE) 18:23:43 437.345 MHz
STRAND 1 19 Jun 18:33:51 18:38:50 48° 100° (E) 18:43:48 ?
KITSAT 1 19 Jun 18:51:23 18:57:26 23° 314° (NW) 19:03:33 435.175 FM
Hamsat 19 Jun 18:57:12 19:01:31 72° 259° (W) 19:05:53 145.90 MHz
JAS-1B 19 Jun 18:58:22 19:05:31 68° 74° (ENE) 19:11:36 435.800 - 435.900 CW/SSB
HO-68 19 Jun 19:20:52 19:23:36 13° 56° (NE) 19:26:19 435.675 MHz FM
SO-67 19 Jun 19:32:57 19:36:31 86° 258° (WSW) 19:40:06 435.3500 MHz FM
MaSat-1 19 Jun 19:56:20 20:01:30 34° 295° (WNW) 20:05:39 437.345 MHz
RS-15 19 Jun 19:56:25 20:07:04 50° 52° (NE) 20:17:29 29.354 - 29.394 USB, Beacon 29.352 USB
PANSAT 19 Jun 19:58:26 20:00:37 15° 160° (SSE) 20:02:49 not established
STRAND 1 19 Jun 20:14:17 20:17:37 18° 295° (WNW) 20:20:56 ?
Oscar 11 19 Jun 20:40:45 20:43:43 18° 68° (ENE) 20:46:42 145.825 FM, Beacon 2401.500 USB
JAS-2 19 Jun 20:52:09 20:59:25 55° 73° (ENE) 21:05:59 435.800 - 435.900 CW/SSB, 435.910 FM
JAS-1B 19 Jun 20:52:20 20:56:20 16° 265° (W) 21:00:03 435.800 - 435.900 CW/SSB
HO-68 19 Jun 21:03:00 21:10:07 78° 73° (ENE) 21:17:16 435.675 MHz FM
Saudisat 1A 19 Jun 21:20:25 21:24:51 56° 116° (ESE) 21:29:21 436.775 MHz
PANSAT 19 Jun 21:37:04 21:40:28 29° 172° (S) 21:43:52 not established
OPAL 19 Jun 21:41:03 21:45:21 29° 68° (ENE) 21:49:37 ?
RS-15 19 Jun 22:09:11 22:19:06 42° 252° (WSW) 22:29:00 29.354 - 29.394 USB, Beacon 29.352 USB
Oscar 11 19 Jun 22:15:46 22:19:40 33° 262° (W) 22:23:37 145.825 FM, Beacon 2401.500 USB
ISS 19 Jun 22:21:42 22:24:58 64° 42° (NE) 22:28:14 145.800 FM
JAS-2 19 Jun 22:38:40 22:44:31 25° 264° (W) 22:50:01 435.800 - 435.900 CW/SSB, 435.910 FM
HO-68 19 Jun 22:54:26 22:58:24 16° 268° (W) 23:02:23 435.675 MHz FM
PCSat 19 Jun 22:58:18 23:00:43 13° 103° (ESE) 23:03:09 145.825 MHz
Saudisat 1A 19 Jun 23:02:07 23:04:53 16° 312° (NW) 23:07:41 436.775 MHz
PANSAT 19 Jun 23:16:59 23:20:28 31° 185° (S) 23:23:56 not established
OPAL 19 Jun 23:19:56 23:24:10 27° 261° (W) 23:28:23 ?
Sapphire 19 Jun 23:30:34 23:35:02 27° 107° (ESE) 23:39:31 437.095 MHz 1200 baud AX-25 AFSK
SO-50 20 Jun 00:11:01 00:15:28 40° 114° (ESE) 00:19:53 436.795 FM
PCSat 20 Jun 00:38:08 00:43:30 67° 297° (WNW) 00:48:55 145.825 MHz
KITSAT 1 20 Jun 00:51:16 00:57:25 23° 46° (NE) 01:03:32 435.175 FM
PANSAT 20 Jun 00:57:41 01:00:22 18° 197° (SSW) 01:03:02 not established
Sapphire 20 Jun 01:13:23 01:18:16 35° 303° (WNW) 01:23:13 437.095 MHz 1200 baud AX-25 AFSK
Oscar 19 20 Jun 01:22:34 01:26:15 20° 94° (E) 01:29:55 437.125 CW, 437.150 USB
ITAMSAT 1 20 Jun 01:48:34 01:53:06 29° 97° (E) 01:57:36 435.822 SSB
AO-27 20 Jun 01:49:49 01:54:26 31° 97° (E) 01:59:01 436.795 MHz FM
SO-50 20 Jun 01:52:34 01:56:12 21° 309° (NW) 01:59:49 436.795 FM
Oscar 16 20 Jun 02:06:42 02:11:49 69° 102° (ESE) 02:16:54 437.025 USB, Beacon 2401.1428
AO-Echo 20 Jun 02:19:04 02:23:03 22° 95° (E) 02:27:04 ?
Uribyol 2 20 Jun 02:21:27 02:26:39 68° 102° (ESE) 02:31:48 436.500 FM
Uosat F 20 Jun 02:41:44 02:43:00 11° 92° (E) 02:44:15 435.120 FM
KITSAT 1 20 Jun 02:45:32 02:53:41 80° 245° (WSW) 03:01:46 435.175 FM
Oscar 19 20 Jun 03:00:58 03:05:43 40° 289° (WNW) 03:10:26 437.125 CW, 437.150 USB
UOSAT-12 20 Jun 03:26:56 03:31:26 89° 119° (ESE) 03:35:59 437.025 FM, 437.400 FM
ITAMSAT 1 20 Jun 03:28:05 03:32:29 28° 291° (WNW) 03:36:53 435.822 SSB
Gurwin Techsat 1B 20 Jun 03:29:19 03:34:12 36° 98° (E) 03:39:03 435.225 FM
AO-27 20 Jun 03:29:28 03:33:48 27° 292° (WNW) 03:38:06 436.795 MHz FM
Oscar 16 20 Jun 03:48:31 03:50:33 12° 297° (WNW) 03:52:34 437.025 USB, Beacon 2401.1428

Developed and maintained by Chris Peat, Heavens-Above GmbH. Please read the updated FAQ before sending e-mail. Imprint. DLR
